RH
63 80 68 62 51 51 56 69 57 45 38 34 33 32 19 14 12 14 20 19 18 18 18 19 22 23 24 25 26 26 26 26 27 27 28 27 25 23 22 23 26 27 26
62 58 52 48 48 59 70 67 51 46 44 41 42 34 16 12 14 22 23 22 23 24 26 27 30 32 36 38 38 40 40 41 40 38 37 35 33 31 30 28 26 23 25
79 68 59 63 65 83 81 71 57 58 59 41 36 30 14 14 18 28 26 28 30 29 35 37 42 42 42 42 42 42 44 46 45 46 47 47 45 46 48 43 38 35 31
100 83 82 88 83 85 84 71 67 79 46 40 31 19 15 16 27 33 30 34 34 32 34 36 38 40 41 44 41 36 39 40 38 42 43 44 42 44 44 44 44 42 40
84 93 92 87 92 100 87 70 79 59 62 42 32 16 16 21 32 34 34 36 41 41 37 39 37 37 39 40 44 52 48 47 48 43 38 37 36 38 43 44 41 43 42
96 93 93 89 93 95 84 70 75 80 64 38 26 16 19 27 31 33 36 38 40 36 37 38 41 47 47 45 52 56 55 48 44 42 42 42 41 37 36 39 41 42 43
99 100 92 98 95 88 89 87 93 83 52 36 20 16 24 26 27 33 38 38 40 42 42 41 44 46 53 58 60 54 48 45 44 39 40 41 42 39 36 37 36 37 35
100 100 98 99 95 87 93 93 81 70 43 31 18 17 26 24 26 33 36 37 42 40 43 48 54 63 64 57 57 55 55 54 54 55 54 56 62 61 56 50 47 44 41
100 100 99 94 93 94 97 91 80 54 38 24 18 20 26 23 26 28 33 37 40 44 49 54 56 55 52 52 56 52 55 60 68 61 60 60 55 55 56 54 52 59 62
100 98 88 87 86 98 95 88 67 46 27 21 21 26 27 24 26 32 36 37 43 48 53 49 46 47 48 51 53 53 60 71 77 80 74 73 66 67 63 61 58 48 58
100 87 80 87 93 98 98 74 53 32 22 24 26 31 30 26 28 35 48 43 51 42 39 40 48 56 61 64 77 85 80 80 83 88 86 90 83 76 69 67 62 64 62
81 81 86 84 100 100 78 56 28 21 25 30 31 34 34 34 33 34 38 39 41 40 48 57 55 66 74 78 80 88 91 92 96 100 100 98 92 83 78 77 84 85 72
78 84 84 95 100 86 54 23 21 22 29 34 33 37 36 36 38 36 38 38 39 46 50 57 68 73 77 80 78 78 86 97 99 98 90 95 93 92 100 100 90 85 85
70 79 99 100 95 53 25 22 22 22 30 33 35 40 40 40 41 40 41 40 41 50 58 72 80 75 71 73 70 72 90 87 83 80 92 79 73 81 97 98 97 98 86
73 99 95 84 41 27 24 24 24 24 29 32 36 42 45 46 49 47 43 41 42 56 74 75 58 62 71 70 72 91 100 100 100 98 83 79 87 88 99 100 99 96 87
45 39 40 29 25 26 26 26 25 26 30 33 42 45 46 51 54 52 51 58 63 64 58 66 79 78 83 85 79 80 87 91 98 100 100 100 100 99 100 98 89 76 70
24 26 25 25 27 27 28 26 26 28 32 41 45 46 48 50 52 50 55 57 67 61 57 74 77 73 62 63 71 85 87 72 68 72 73 75 81 98 100 94 83 65 54
27 27 28 28 28 29 29 27 29 35 44 47 49 48 48 46 46 47 47 50 54 55 53 52 55 59 61 63 64 64 63 63 66 67 67 75 79 90 84 68 63 48 38
30 30 29 28 29 29 30 29 35 44 46 45 44 43 43 43 44 43 45 44 44 47 47 48 50 50 51 53 57 57 62 65 61 68 66 73 74 62 52 42 41 31 25
31 32 32 32 29 32 31 37 41 41 41 44 44 42 40 39 40 41 43 43 42 40 40 40 43 46 49 50 52 57 57 61 63 61 56 61 46 41 33 30 24 19 17
35 36 34 30 32 33 37 39 34 34 35 36 36 38 40 40 37 35 36 36 39 43 47 51 54 54 59 62 62 57 48 46 45 39 39 38 27 28 21 17 16 16 15
36 34 31 32 33 39 40 32 33 35 34 34 34 36 32 33 36 37 40 44 47 51 52 45 43 40 40 38 42 43 45 39 33 37 30 30 21 16 16 15 14 14 15
34 32 36 37 40 38 36 34 32 30 29 30 29 35 36 37 43 46 49 51 48 45 44 38 35 36 32 32 25 22 24 22 20 20 17 16 16 16 15 15 14 14 14
35 38 39 38 36 35 32 30 30 31 33 34 39 47 54 53 46 43 43 40 40 38 32 27 25 26 21 20 16 13 11 12 12 12 13 12 14 14 15 14 14 15 15
38 40 36 33 30 29 29 31 35 39 46 48 47 43 42 41 39 36 33 31 28 28 22 20 18 16 15 14 14 12 11 9 9 11 11 11 12 11 12 12 14 15 15
31 32 32 31 31 35 41 45 45 44 44 52 53 50 40 34 32 27 24 22 20 21 17 16 15 14 13 12 12 10 9 8 8 8 10 9 10 10 10 12 13 15 15
Wind_Speed
46 48 51 54 54 54 56 58 61 64 66 66 67 68 65 64 60 55 47 38 33 30 26 22 20 18 17 16 16 17 18 20 22 25 29 34 38 42 49 57 61 62 62
50 51 54 54 55 57 58 62 65 67 66 69 70 71 68 63 61 52 42 33 30 27 25 22 18 15 12 11 11 11 11 12 14 15 16 17 20 25 30 36 42 50 59
51 54 57 57 59 60 61 63 66 67 69 71 74 71 69 66 62 49 35 29 26 20 17 13 11 11 11 11 12 10 11 12 14 16 17 16 15 16 18 20 24 30 37
53 57 58 60 61 62 62 64 66 68 71 74 72 72 68 66 56 45 33 26 21 18 18 16 16 15 16 18 18 18 18 18 18 21 23 24 22 22 24 25 26 26 26
58 59 60 61 62 61 62 64 66 69 73 75 75 72 69 63 53 43 32 27 24 24 22 20 20 21 22 24 26 30 28 29 28 27 27 27 27 26 27 28 27 28 30
61 61 61 62 62 62 64 66 68 69 74 74 73 70 66 60 52 40 33 29 28 29 28 26 26 28 29 30 32 34 35 36 37 37 37 38 38 34 34 33 35 33 32
61 63 63 63 62 63 64 66 69 72 74 74 72 68 59 55 47 36 31 30 30 30 29 29 32 35 36 38 40 42 42 42 43 43 43 45 46 44 41 40 43 45 43
64 64 64 63 62 63 66 68 70 73 74 73 69 64 53 50 41 34 28 29 30 30 31 33 35 38 42 44 44 46 46 46 46 47 48 49 49 50 50 48 48 49 49
65 64 65 63 62 63 67 71 73 74 75 73 67 60 49 45 39 30 28 29 30 32 35 38 40 43 45 47 48 48 48 49 50 52 51 51 52 53 53 52 51 50 52
64 64 64 64 61 65 70 70 74 76 76 70 66 58 46 41 32 31 32 32 34 36 40 44 45 44 45 47 49 52 53 54 56 57 58 59 59 60 61 59 57 57 57
65 65 63 61 63 67 69 73 76 75 71 69 66 57 46 40 35 35 37 38 42 45 44 43 43 47 48 48 49 52 55 58 59 60 61 62 66 67 67 66 67 66 65
64 61 60 61 64 68 72 75 74 73 70 69 65 56 50 45 43 43 44 46 43 45 46 49 49 50 51 51 52 54 55 55 57 60 61 63 65 66 68 69 68 69 72
60 60 61 63 67 71 73 72 73 70 71 70 65 57 52 50 49 48 47 47 46 50 51 55 56 56 56 56 60 62 64 66 68 70 68 68 71 71 72 74 75 75 74
59 61 64 67 70 72 71 73 73 72 71 71 64 57 55 53 53 53 53 51 51 53 55 61 60 62 63 64 69 73 74 74 77 77 77 79 77 79 80 80 79 80 82
59 63 66 69 70 71 73 74 75 75 74 72 64 58 57 57 57 59 60 59 57 57 59 69 68 69 76 80 81 81 82 82 84 86 86 85 85 88 87 88 88 87 87
61 63 66 68 71 74 75 77 79 77 76 68 61 60 61 61 63 63 64 64 65 66 65 75 80 82 84 88 92 93 91 90 92 93 95 95 93 94 95 95 95 92 92
62 65 68 72 75 77 79 81 80 79 73 65 61 61 65 66 68 70 71 74 75 81 79 81 87 91 93 93 98 99 97 97 99 103 102 101 99 100 100 100 97 96 95
68 71 74 77 79 81 84 82 82 75 68 63 62 64 69 73 76 79 81 82 84 88 87 87 92 97 99 102 103 100 104 107 107 105 106 106 107 107 107 103 99 96 92
73 77 79 81 83 86 86 84 77 71 67 65 67 71 75 79 82 85 88 89 94 96 98 98 99 103 105 108 109 110 112 112 111 113 113 113 111 110 107 101 98 93 87
79 81 83 86 88 88 86 78 72 69 69 71 74 78 81 85 87 91 94 97 100 102 106 108 108 110 112 115 118 120 118 118 119 120 116 115 112 107 103 99 95 89 83
83 86 89 90 90 88 80 73 72 74 76 78 82 85 90 93 96 102 104 107 111 113 115 115 115 115 118 121 122 124 124 125 122 119 117 111 105 100 101 95 90 88 85
88 91 93 91 89 82 77 77 76 78 81 85 89 94 99 102 105 110 114 116 119 123 124 126 125 124 126 127 127 127 124 122 119 118 112 106 105 100 98 93 90 85 81
93 94 91 87 81 80 82 84 86 89 93 97 101 104 107 111 117 120 120 119 121 124 126 129 128 127 126 127 122 115 114 112 107 106 103 101 102 98 96 92 89 84 79
92 90 84 81 82 86 90 94 97 99 101 106 111 115 116 117 120 122 119 119 122 126 129 128 125 122 121 119 118 117 112 108 104 102 104 96 97 94 94 87 84 81 79
87 81 83 87 91 96 99 103 105 107 110 113 115 117 118 117 121 124 124 126 127 127 123 122 121 119 118 119 120 119 114 110 99 98 99 95 94 87 84 78 79 78 76
83 86 90 95 98 102 109 111 115 115 114 116 116 119 121 124 127 129 131 127 119 118 120 120 122 123 122 121 119 118 109 101 94 90 91 90 87 84 75 75 71 74 73
Wind_Direction
298 297 299 301 304 304 305 307 309 310 315 317 320 321 321 320 321 323 319 313 312 313 313 314 315 314 310 305 299 295 292 288 286 281 276 271 268 265 263 260 258 258 257
296 299 301 304 306 307 307 308 312 314 317 319 321 322 322 322 324 323 320 317 323 325 325 327 328 328 333 333 332 333 328 325 319 310 302 295 288 281 273 266 262 258 257
296 301 303 305 306 307 307 310 313 314 315 319 321 323 322 322 324 321 316 319 321 317 320 317 313 314 319 322 319 318 311 308 310 310 309 302 296 295 292 285 279 273 266
293 298 301 303 304 306 308 310 313 312 316 320 322 323 322 321 320 317 309 310 304 301 300 295 292 294 305 306 312 312 309 302 300 303 301 300 295 294 290 288 286 282 277
294 298 299 302 304 306 307 309 309 312 316 320 322 321 320 317 315 310 297 294 289 293 293 298 302 301 305 306 309 313 312 311 308 304 303 297 292 288 287 284 284 288 286
294 297 299 302 303 305 307 308 308 311 315 317 320 320 319 315 311 302 291 286 290 295 292 295 300 304 305 305 308 308 307 306 306 305 304 303 301 296 293 287 281 277 278
293 295 299 301 302 303 305 306 307 310 313 316 318 319 318 313 308 295 286 283 286 290 291 293 300 305 306 305 306 306 305 306 306 304 304 305 304 302 297 293 289 287 280
292 296 299 301 302 303 304 304 305 309 312 315 317 319 317 310 303 293 284 282 283 288 293 297 299 299 298 300 301 303 305 306 307 307 307 306 305 304 303 300 297 292 288
292 295 297 298 300 302 302 304 306 309 312 314 315 320 314 306 299 289 282 285 287 290 293 294 293 295 298 299 301 302 301 302 303 302 300 298 298 298 296 294 292 292 292
292 294 296 297 298 300 302 304 306 310 313 314 316 318 309 302 294 288 291 288 286 288 290 293 296 296 298 301 301 300 299 297 299 300 299 299 301 301 300 298 297 295 294
292 294 294 296 298 299 301 304 307 310 312 315 315 311 302 298 293 289 288 285 287 290 291 291 295 298 298 299 299 298 298 300 302 302 303 300 299 298 297 296 295 294 294
292 291 293 296 297 299 302 305 307 310 313 313 312 305 298 293 289 285 284 288 289 290 292 295 296 295 295 294 296 299 301 302 302 304 303 303 303 304 301 298 294 293 293
289 291 294 296 298 300 303 305 308 311 311 311 309 300 293 289 288 286 287 286 287 291 292 292 293 291 292 293 296 298 299 301 301 300 299 300 300 302 303 302 297 292 290
289 293 295 296 297 299 302 305 308 310 309 309 305 293 289 287 288 285 286 285 286 287 289 290 292 294 294 293 296 300 301 298 299 299 298 299 297 298 300 298 296 295 291
291 292 293 294 296 300 303 306 309 309 307 306 300 288 286 285 284 285 286 286 285 286 291 290 292 295 297 298 298 298 297 296 296 296 297 296 297 296 298 298 296 294 292
292 293 293 296 299 301 305 308 309 307 306 302 294 286 284 284 284 285 285 286 286 285 285 291 294 296 296 295 295 295 295 294 294 295 296 296 296 296 295 295 294 292 289
294 295 297 299 301 304 306 307 306 305 303 298 292 284 283 283 285 284 284 284 286 290 292 291 291 293 293 291 293 294 292 292 293 294 294 293 293 293 293 293 292 291 290
296 298 300 302 303 305 306 306 305 304 300 296 291 286 285 284 282 283 286 285 288 290 291 289 288 288 289 290 291 290 291 291 291 292 291 290 291 291 290 290 290 291 289
298 299 301 302 303 304 305 305 303 299 296 291 289 287 287 288 288 287 288 289 290 288 289 288 289 290 290 291 291 291 290 290 288 289 289 288 288 287 289 289 289 290 287
298 300 301 302 303 304 304 303 300 297 294 293 293 293 293 292 290 290 290 289 289 289 290 291 291 291 291 290 289 288 286 287 287 288 287 287 288 289 288 287 287 286 285
298 300 301 303 302 302 300 298 297 297 296 294 294 293 292 292 292 293 293 293 293 294 293 290 289 287 287 287 287 285 285 284 286 288 287 289 289 288 287 286 285 283 282
299 300 301 302 302 301 298 298 298 297 296 295 293 293 295 295 294 295 294 293 293 293 292 290 288 286 286 286 286 286 288 288 289 288 288 287 288 287 286 285 282 282 281
299 300 301 302 300 298 297 296 296 296 295 296 296 296 296 295 295 295 294 292 293 293 292 290 290 291 291 290 289 287 285 285 285 284 284 284 284 284 283 283 281 279 277
299 300 300 298 297 298 297 297 297 297 299 300 300 299 297 294 292 293 290 292 293 293 292 292 293 292 293 291 290 289 288 286 285 285 284 283 280 280 278 278 278 277 274
299 298 297 297 298 298 299 300 299 300 302 300 297 295 297 296 295 296 294 292 293 295 295 295 295 293 291 290 289 289 289 289 288 285 284 282 281 277 275 274 272 271 270
296 297 298 298 299 300 301 302 302 299 297 298 299 299 300 297 295 294 295 296 296 295 294 293 294 294 294 292 291 291 289 287 285 282 281 277 276 273 270 267 266 263 263